Theta_e
299 299 300 299 300 301 300 300 301 302 302 304 305 306 306 305 306 304 301 303 298 293 293 298 298 295 295 295 291 294 293 294 294 289 288 288 289 292 292 292 290 288 286 286 287 285 282 300 300 294 299 301 302 300
299 299 299 300 301 300 301 302 302 302 302 303 304 305 306 306 306 305 297 304 304 295 295 302 302 303 302 301 296 295 293 294 295 292 292 292 290 291 290 287 296 289 293 291 292 292 297 303 302 304 303 301 300 300
299 299 300 301 300 300 301 302 302 302 302 303 304 305 306 306 306 304 300 302 300 295 295 297 297 302 304 303 305 295 297 298 298 297 295 293 288 292 289 290 292 296 298 295 294 297 299 302 304 304 303 300 301 301
299 300 300 300 299 300 301 302 302 302 302 303 304 305 306 305 305 305 300 302 299 295 288 292 303 299 304 304 302 303 301 301 300 298 295 293 290 292 290 291 291 295 297 294 294 298 300 303 303 301 300 300 296 296
299 300 300 299 300 301 302 302 302 302 302 303 304 305 305 305 305 304 302 302 303 295 289 291 298 301 304 302 302 303 300 298 297 296 294 292 293 292 293 293 290 296 296 295 293 300 301 301 304 301 300 297 297 296
300 300 299 299 301 301 301 302 302 302 302 303 305 306 305 305 305 300 293 300 304 302 292 287 297 298 301 302 301 300 299 298 297 295 293 295 296 294 289 287 295 296 299 302 299 302 303 304 304 302 300 298 298 296
300 299 299 300 300 301 302 302 301 302 303 303 304 305 305 305 303 296 292 298 302 302 293 288 289 299 301 300 299 297 298 296 297 295 292 293 294 295 291 287 294 298 300 301 303 303 300 303 300 301 299 298 296 295
299 299 300 300 301 302 302 301 301 302 303 304 305 306 305 305 302 297 302 304 304 298 296 288 288 292 299 293 292 298 294 296 295 293 293 291 293 293 286 292 293 295 297 300 302 300 302 302 301 299 299 296 294 293
299 299 300 300 301 302 302 302 301 303 304 304 305 304 302 300 296 299 306 303 302 296 290 290 287 286 299 294 295 294 295 289 294 289 290 292 289 285 290 292 294 296 297 298 299 300 298 298 297 297 297 296 294 293
299 299 300 301 301 301 301 302 302 303 303 305 302 296 291 296 304 303 297 294 293 293 294 288 290 289 294 292 289 291 292 289 285 288 292 288 287 293 296 297 298 301 300 300 297 294 294 295 295 295 295 296 295 294
299 299 300 300 300 301 301 302 302 302 303 300 294 292 300 303 299 295 289 288 289 287 290 290 289 289 296 290 288 292 288 289 284 287 287 287 287 293 296 297 298 300 301 301 300 300 300 298 296 295 294 294 295 295
299 299 300 300 300 301 301 302 303 300 299 298 297 299 299 294 291 286 286 288 287 285 289 289 289 291 294 296 291 291 287 288 282 290 287 285 292 296 298 297 300 301 298 299 300 298 299 298 297 296 295 294 294 295
298 299 300 300 301 301 302 304 302 302 302 299 294 290 289 289 283 282 281 285 286 289 290 291 289 293 295 294 291 289 284 285 293 286 285 291 295 298 299 299 298 298 299 298 298 299 298 296 296 295 293 294 294 293
298 299 300 300 301 302 304 302 303 303 298 291 287 283 284 283 285 286 286 288 291 292 292 292 291 290 292 289 290 284 288 290 283 281 285 294 297 297 297 299 300 297 297 296 297 297 295 293 293 293 293 293 293 292
298 299 299 300 301 303 302 303 303 302 296 288 288 282 285 289 290 291 292 291 294 295 294 291 290 290 287 286 287 286 283 281 285 286 293 298 295 295 296 297 297 296 297 296 296 294 293 292 292 291 292 293 292 292
298 298 298 300 300 302 303 302 301 298 294 290 288 286 289 287 287 289 291 292 295 294 293 291 287 285 285 287 284 282 281 282 288 293 296 296 294 296 297 298 297 297 296 295 294 294 293 292 292 291 292 292 291 291
297 295 299 299 301 301 302 299 297 292 290 288 287 291 289 288 286 289 292 295 297 293 289 289 285 285 289 284 283 288 285 290 292 295 298 297 296 294 296 296 296 295 294 293 293 294 293 294 294 293 290 290 291 291
294 298 299 299 299 299 299 298 293 290 286 289 287 289 291 291 291 293 296 296 295 292 291 287 291 286 285 284 286 289 292 294 295 296 296 297 298 296 296 295 295 294 293 293 293 293 293 292 292 292 291 290 289 289
297 298 299 299 299 296 292 292 294 286 288 290 291 292 291 292 296 298 296 296 297 297 293 291 288 287 288 289 287 289 293 295 294 294 295 296 296 295 295 295 294 294 294 294 293 292 292 293 292 293 292 291 289 288
298 299 299 300 300 294 290 291 295 289 286 290 292 292 293 293 296 297 297 296 295 293 290 288 289 290 290 292 295 296 297 295 295 293 292 294 295 295 295 294 293 294 293 293 293 291 291 290 291 292 292 290 289 287
297 299 301 301 298 296 292 291 290 291 291 290 293 292 293 295 295 295 294 296 292 291 289 292 293 295 299 300 300 301 298 296 295 295 293 292 294 294 294 294 294 293 292 292 291 290 291 291 291 292 292 290 289 288
296 300 298 299 293 293 291 293 290 292 290 291 291 292 291 291 293 295 297 292 292 293 294 295 296 297 299 300 301 300 298 298 296 294 292 292 293 293 293 293 293 291 292 292 292 291 291 291 291 291 289 287 287 287
297 298 296 295 289 289 288 294 289 291 287 289 292 290 291 291 294 296 291 294 294 297 297 298 298 300 301 302 299 297 298 299 295 296 295 295 295 295 294 294 294 292 291 291 292 291 290 288 289 289 287 287 287 286
298 293 289 288 288 285 290 288 290 290 290 289 288 287 291 292 295 291 288 290 293 296 296 295 297 298 300 301 297 296 297 298 296 296 296 296 294 294 294 293 293 293 293 292 291 291 290 290 288 289 287 286 286 285
288 286 288 284 289 287 286 287 288 288 286 287 286 288 292 294 289 287 288 290 292 292 292 294 295 297 296 296 297 296 298 297 296 294 295 296 294 293 292 292 292 292 293 291 290 290 290 289 289 288 287 286 285 284
282 287 284 286 287 286 287 285 287 286 288 287 289 292 292 289 287 286 288 289 290 291 291 291 293 295 295 293 294 296 296 298 297 294 294 295 295 294 292 291 290 291 294 293 291 289 288 288 287 286 284 283 282 283
282 284 288 291 290 289 288 290 291 289 286 286 287 287 287 285 285 287 291 291 291 292 293 293 295 297 296 294 293 294 296 298 296 294 294 294 294 296 295 293 292 291 293 292 292 290 288 287 286 285 284 283 283 282
287 288 284 289 288 290 287 289 287 286 287 290 289 285 284 284 286 289 290 292 292 293 293 295 297 299 294 292 293 292 292 292 292 291 291 290 290 291 292 292 291 286 291 291 290 289 288 287 285 284 283 281 281 281
286 290 290 288 288 289 290 289 289 290 291 289 287 287 287 289 290 290 292 291 293 294 294 296 293 294 293 293 293 293 293 293 292 291 289 287 287 286 289 289 289 288 287 285 282 285 286 285 284 283 282 281 280 280
287 291 289 289 288 287 290 291 290 291 291 292 292 290 289 289 292 294 293 291 292 292 293 296 293 294 292 292 291 291 293 294 295 292 289 287 286 287 288 287 286 286 286 285 283 282 280 282 281 281 280 279 279 279
290 290 288 289 287 289 291 292 291 291 291 291 292 289 288 289 292 294 293 292 294 294 292 292 292 293 292 292 291 291 290 292 293 292 290 288 288 288 287 286 286 285 285 284 284 283 282 281 280 279 278 278 277 277
290 289 289 286 287 290 291 289 287 287 289 289 288 288 287 287 287 291 294 292 294 292 288 290 290 288 290 290 290 291 287 291 290 289 288 288 288 287 286 285 284 284 284 283 283 282 281 280 279 278 277 276 276 276
289 289 289 287 286 286 289 287 286 286 288 287 288 288 287 287 286 291 294 295 293 295 293 291 289 290 289 288 288 287 287 289 287 284 284 284 284 284 284 284 284 283 282 282 281 280 279 278 277 276 274 273 273 272
Wind_Speed
20 21 22 21 21 20 19 20 22 21 22 23 23 21 19 18 17 6 3 3 2 3 7 7 3 8 6 2 2 2 4 2 1 2 1 2 1 2 3 8 8 7 6 4 4 4 4 1 2 3 4 6 9 10
20 20 21 22 22 22 21 21 22 20 20 22 22 22 21 19 17 9 3 2 2 4 5 4 12 13 10 7 2 3 2 1 1 2 1 1 2 0 2 5 2 4 3 5 5 2 2 3 2 4 5 11 10 12
20 21 22 22 20 21 21 21 22 21 20 21 21 22 23 18 15 9 3 2 2 3 4 3 4 5 3 6 7 3 1 0 2 2 2 1 3 1 2 3 1 3 4 2 5 4 1 1 4 5 9 12 12 11
20 21 23 20 20 20 21 19 20 21 20 21 21 23 21 14 14 10 2 1 1 2 3 2 6 6 10 4 7 6 3 4 3 0 2 2 2 2 2 2 1 1 8 4 1 4 2 5 5 10 13 13 13 11
21 23 21 20 21 21 21 20 20 18 20 22 23 23 17 14 14 5 4 4 4 2 2 4 4 5 8 3 6 6 5 3 2 2 2 2 2 2 2 0 3 4 5 4 1 5 3 3 11 14 14 13 12 13
21 19 20 20 20 20 20 19 19 19 21 22 24 22 16 14 10 3 2 3 1 3 2 3 2 3 3 10 10 8 5 3 2 1 2 2 2 1 1 2 5 6 5 4 2 2 4 6 12 11 14 14 11 11
21 18 20 21 21 21 19 19 21 22 22 22 22 21 16 14 4 2 2 2 2 1 2 3 2 2 4 3 3 4 3 2 2 2 2 1 2 1 1 3 2 6 4 2 5 10 8 11 8 12 15 14 13 13
20 20 21 21 20 19 19 19 20 22 22 22 22 19 14 7 2 2 2 5 3 2 1 2 1 1 2 2 1 2 3 2 2 2 1 1 2 1 4 8 8 6 6 1 9 4 8 12 15 14 14 13 13 11
19 20 21 21 19 19 18 19 20 21 22 23 20 11 1 2 2 2 7 5 2 2 1 1 2 2 2 2 2 2 1 2 2 0 1 2 2 5 5 5 4 3 4 4 9 10 13 15 15 14 13 11 10 9
19 20 21 20 18 17 18 19 20 21 24 19 4 3 2 2 11 6 1 1 2 2 2 2 1 2 3 2 1 1 1 2 0 1 2 2 4 9 8 6 3 4 8 12 14 10 13 15 14 11 10 8 9 8
19 19 20 21 19 19 20 20 19 21 10 3 4 2 3 9 2 1 1 1 1 1 2 2 3 2 4 1 2 2 1 1 2 3 2 1 3 2 2 6 6 2 7 6 2 12 13 17 13 12 10 9 9 9
17 19 20 19 20 21 21 19 15 5 3 4 4 4 2 2 1 2 2 0 2 3 1 1 2 1 2 1 1 1 2 0 2 3 2 2 2 4 3 5 7 8 10 11 13 15 16 13 12 12 11 10 9 9
18 19 19 20 21 21 20 13 8 8 6 1 1 2 2 1 1 3 3 2 2 2 2 2 2 1 1 3 1 1 1 0 2 2 2 2 5 4 6 10 11 11 11 15 15 14 16 15 13 12 11 9 9 8
17 19 19 20 16 21 19 6 8 3 1 2 3 4 1 2 1 1 1 2 2 2 2 2 2 3 3 1 1 0 1 1 2 2 2 1 2 6 8 11 12 11 12 15 16 16 16 15 13 12 10 9 9 8
17 18 19 9 20 23 5 6 3 1 2 2 2 3 2 2 2 3 2 3 3 2 3 2 2 1 1 1 1 1 2 3 3 1 1 2 4 7 9 10 13 13 13 14 14 14 15 14 13 12 10 10 9 8
16 15 2 15 19 19 9 5 2 1 0 1 2 4 3 4 2 2 2 2 1 3 2 1 2 2 2 1 3 4 3 4 1 1 2 5 7 6 8 9 12 12 13 12 12 13 13 13 12 11 10 9 9 9
12 2 8 16 18 17 9 2 2 1 2 2 3 3 5 3 3 3 2 1 1 0 1 1 2 1 2 2 3 3 3 3 4 5 4 9 9 4 7 11 12 12 12 12 11 11 11 11 11 10 10 9 9 9
3 5 13 16 13 5 2 1 2 2 2 3 4 5 2 3 4 4 1 1 1 0 0 0 1 2 2 3 2 1 1 1 4 5 8 11 12 6 8 12 12 12 11 11 11 11 11 10 9 7 11 10 9 8
8 9 15 16 6 4 2 1 0 2 3 4 4 4 3 4 4 3 1 1 1 1 1 1 2 2 2 1 2 5 4 3 3 3 4 5 7 9 11 11 11 11 10 10 10 7 6 6 7 7 7 6 6 5
16 16 14 9 4 1 2 1 1 2 3 3 3 4 3 4 2 0 2 2 0 0 0 1 1 2 2 5 3 2 2 5 7 7 6 6 6 10 10 10 7 9 8 8 8 8 7 6 5 6 6 7 6 6
6 3 4 3 1 2 2 2 2 3 3 3 3 3 3 2 2 2 1 1 1 1 1 2 2 7 7 2 1 1 4 5 6 8 8 7 5 8 7 7 8 6 7 6 6 5 5 6 6 6 8 7 7 6
3 8 1 1 1 2 2 2 2 2 3 3 4 2 3 2 1 0 2 0 1 1 1 3 4 5 6 4 5 4 7 8 8 8 10 10 7 7 6 6 7 5 5 5 6 6 6 5 6 7 8 8 7 6
7 3 1 1 1 1 3 1 3 3 3 2 2 3 2 0 1 0 1 1 1 2 4 4 5 4 2 2 5 6 5 8 6 7 7 6 6 6 6 5 5 7 6 5 5 6 7 7 7 9 9 8 7 7
4 2 1 2 3 3 1 2 2 2 3 3 2 3 1 1 1 1 1 1 1 4 5 7 4 2 4 5 5 5 4 5 6 5 6 7 6 5 4 5 5 4 5 7 7 7 7 6 8 7 8 7 6 5
2 2 2 3 3 3 3 3 3 2 3 2 2 1 0 1 1 1 0 1 2 4 5 5 4 4 3 3 3 4 5 8 8 7 3 4 7 6 6 5 5 5 6 8 7 8 7 6 6 7 7 6 7 6
3 4 5 3 2 3 2 3 2 2 2 2 1 3 2 1 2 0 1 1 2 2 3 4 4 4 3 4 2 4 5 5 7 6 4 5 5 7 9 8 7 4 3 6 9 9 8 7 8 10 9 9 6 5
3 3 3 3 2 2 3 3 2 2 2 2 2 3 1 2 1 1 1 1 1 2 3 4 4 3 3 2 2 2 3 3 6 7 7 6 5 2 5 8 9 5 7 8 8 9 9 9 9 9 8 6 6 5
3 2 5 1 3 2 3 2 2 2 1 1 2 1 2 2 1 1 1 1 3 5 4 3 3 2 1 3 4 5 7 8 11 10 11 10 8 7 8 8 9 11 9 8 9 8 8 9 9 9 8 7 6 5
3 2 3 3 3 3 3 3 2 1 1 1 1 1 1 2 1 2 2 2 5 4 3 2 2 4 5 6 5 5 6 7 11 12 11 7 5 5 5 8 8 8 9 11 12 9 11 9 9 8 8 7 6 5
4 4 3 3 3 3 0 1 1 1 1 1 1 1 2 2 2 2 2 2 3 3 2 2 2 4 5 7 6 5 4 2 3 5 7 8 8 8 7 8 8 8 8 10 11 12 12 12 10 8 7 5 5 4
1 3 3 1 1 1 1 1 1 1 2 2 3 3 2 2 2 2 3 2 3 1 2 3 3 2 4 4 4 4 4 4 6 9 11 11 10 9 8 8 7 7 8 9 9 8 8 7 6 7 6 7 6 4
2 4 3 4 3 1 2 2 1 2 2 3 2 2 1 1 3 1 1 3 3 2 1 3 5 3 3 3 4 3 3 7 8 10 15 11 9 9 9 8 8 8 8 9 8 7 8 8 7 6 6 6 5 5
1 1 1 2 1 2 3 2 2 3 3 2 3 3 3 2 3 1 1 0 1 2 4 4 5 6 7 6 6 6 6 7 10 10 11 13 11 10 8 7 7 8 10 8 8 8 8 9 8 8 7 6 5 5
Wind_Direction
327 329 328 327 331 328 327 321 325 325 326 326 326 326 320 322 317 330 267 238 248 253 287 265 284 304 329 325 326 127 209 174 342 75 117 106 120 98 157 140 161 155 161 165 160 196 253 81 220 242 72 106 121 109
324 328 325 325 330 331 326 326 322 321 325 321 323 322 330 314 316 329 264 200 226 241 274 306 275 267 262 272 334 355 14 21 72 91 63 113 129 53 56 157 167 149 178 172 186 162 17 329 354 89 118 122 104 101
323 325 325 326 331 327 324 322 324 326 326 321 319 320 318 313 319 322 261 258 238 263 277 274 292 332 235 228 221 270 195 162 84 5 115 108 107 269 153 102 53 120 146 113 164 114 347 352 90 110 124 115 115 104
322 324 324 330 329 324 320 321 322 325 328 326 322 320 317 314 322 323 231 272 218 285 278 305 347 331 320 282 207 211 123 103 100 1 76 83 100 254 79 43 300 356 158 162 218 215 225 188 129 120 110 104 102 93
324 324 331 327 326 324 324 326 322 322 325 324 323 323 321 324 329 314 245 219 206 248 316 289 324 293 337 108 115 111 97 101 71 89 62 83 78 180 85 237 237 206 160 186 130 160 175 80 146 138 128 122 115 114
324 335 331 324 328 325 326 324 321 324 323 324 322 327 323 317 327 306 328 13 205 185 273 297 342 304 72 92 86 74 64 45 63 53 64 91 71 322 149 224 255 219 225 250 132 146 129 112 135 145 130 126 117 110
329 333 326 325 325 322 321 324 325 325 325 322 317 321 317 315 300 252 254 261 333 321 243 287 333 72 43 54 51 45 40 54 52 73 57 40 100 314 181 245 124 90 99 265 191 130 112 155 139 130 127 121 114 109
330 332 326 326 325 327 325 321 325 322 324 317 314 313 316 335 336 305 316 259 220 231 257 302 327 224 84 110 91 21 53 26 56 86 143 203 149 164 250 243 273 297 305 29 149 66 110 120 124 127 127 129 121 122
328 327 324 323 324 324 324 326 326 324 321 320 317 322 17 36 322 15 349 356 18 41 309 343 347 91 176 67 88 98 103 96 10 43 223 179 173 229 240 266 268 181 211 121 100 112 122 126 130 130 130 130 129 130
327 325 321 326 325 325 327 325 328 328 320 319 333 359 25 300 312 318 18 19 25 345 4 38 296 48 342 77 79 104 354 87 198 159 119 218 256 269 258 249 285 120 120 132 114 115 123 130 131 132 126 129 128 125
322 322 325 329 329 329 324 321 327 329 322 359 354 329 301 306 298 355 14 10 358 87 22 37 9 38 26 61 95 3 93 91 302 101 270 240 258 254 40 207 218 201 157 183 34 143 150 140 137 130 125 121 122 123
322 321 323 326 328 325 321 317 320 320 308 304 296 290 287 312 309 360 16 39 31 37 113 6 56 23 10 12 83 76 35 289 355 131 233 245 245 309 265 162 145 148 123 117 118 123 126 126 121 121 120 116 112 112
322 320 322 326 324 318 319 322 306 297 310 275 264 301 341 336 324 16 20 57 29 0 160 163 92 7 134 33 76 102 267 37 156 246 263 285 321 19 139 129 108 103 109 113 115 116 114 111 112 112 108 106 111 105
321 320 324 324 325 325 324 323 318 334 324 1 342 321 335 310 291 303 281 312 302 260 166 119 71 27 39 30 30 272 63 261 240 228 249 320 41 111 123 119 115 111 122 122 119 119 116 110 110 109 109 114 111 103
320 320 320 329 340 337 343 337 326 13 347 329 308 303 280 291 252 273 230 256 250 87 128 116 111 100 139 170 258 308 226 251 254 278 358 48 87 125 116 116 120 124 123 118 121 119 119 121 120 112 106 105 107 104
325 323 317 347 346 349 347 337 354 343 75 286 252 272 292 300 317 304 253 168 98 118 109 102 148 189 179 192 194 202 227 233 279 82 75 116 100 110 110 126 121 121 119 117 118 126 129 126 124 118 113 107 99 96
325 248 327 341 339 333 318 322 340 287 313 283 269 261 281 264 270 266 270 84 105 123 112 173 208 49 110 210 222 204 228 357 307 235 150 123 102 97 128 123 118 118 117 120 127 126 120 123 131 131 120 109 100 92
249 278 316 322 334 295 277 333 313 306 276 259 287 295 301 261 277 284 73 148 144 114 249 232 301 224 238 242 180 218 111 294 343 75 110 127 165 163 143 123 125 124 125 130 127 124 127 132 129 128 130 122 108 103
283 292 297 303 301 297 299 295 216 294 277 296 276 276 263 272 260 281 95 131 123 180 282 304 256 245 263 301 275 276 218 167 96 104 130 136 139 135 127 120 120 127 131 135 134 127 124 123 122 135 140 141 115 115
294 289 282 280 205 242 274 258 250 263 282 309 275 275 285 290 319 27 161 192 212 177 194 252 271 309 233 265 262 281 109 143 150 124 104 109 118 117 121 130 125 124 115 113 113 120 123 114 115 130 144 130 125 112
304 275 308 154 189 234 275 282 240 244 294 274 296 303 295 294 258 224 206 151 32 352 305 275 272 289 293 106 150 132 118 139 133 129 128 126 121 120 120 119 127 134 132 131 129 123 143 131 127 122 134 119 112 101
269 310 261 248 264 218 259 234 258 299 268 277 291 251 274 282 274 200 136 154 237 279 217 296 325 314 355 39 52 89 122 110 96 100 96 119 127 132 134 136 138 135 140 140 138 130 124 118 119 116 118 115 109 106
294 221 227 196 286 257 264 163 258 213 262 270 286 262 235 204 23 88 261 73 65 3 336 308 323 288 273 107 78 98 126 118 122 131 135 127 125 123 127 137 143 138 130 112 117 123 120 113 111 118 122 120 119 115
279 251 231 213 214 269 285 239 225 262 273 256 254 269 213 92 148 283 33 14 11 354 350 345 334 344 118 118 101 123 131 127 122 116 132 135 130 118 124 125 126 113 115 128 122 117 123 117 123 127 128 128 124 115
238 208 208 245 219 233 235 232 227 235 264 265 275 271 14 156 246 207 28 49 360 5 357 338 356 26 79 93 102 108 129 148 143 126 111 125 121 115 107 103 95 101 134 129 128 126 120 121 120 129 132 127 118 104
239 190 189 240 204 222 234 262 223 262 258 262 286 350 337 310 268 27 69 11 357 359 356 357 351 332 68 37 109 147 142 141 123 108 119 154 162 150 147 149 143 117 137 135 134 131 127 128 130 127 117 107 96 109
250 235 212 228 258 275 259 252 238 224 262 355 350 314 317 261 217 76 356 27 330 348 312 308 310 358 348 357 76 65 78 98 80 99 99 83 72 90 150 154 149 128 139 135 131 134 134 134 133 127 120 111 97 85
253 238 223 155 225 219 274 252 258 251 223 221 276 267 303 298 343 0 287 349 321 311 293 275 266 301 121 119 117 116 99 104 105 109 97 71 56 58 78 88 91 93 104 104 111 117 124 127 128 126 122 114 104 86
240 243 191 234 215 227 242 215 238 185 141 180 261 281 187 186 228 243 277 304 306 302 292 161 102 112 103 94 90 106 132 148 149 144 119 118 113 78 89 101 94 94 99 92 65 86 109 112 117 116 113 108 105 104
241 190 229 222 183 214 204 344 62 126 217 245 271 244 235 247 248 224 243 288 308 321 310 139 118 138 131 106 102 77 38 65 123 129 141 145 134 128 119 107 107 105 106 108 109 107 106 109 114 117 119 121 115 111
210 188 207 222 199 128 96 144 121 252 254 234 221 247 276 312 273 228 219 229 277 211 123 122 105 76 106 124 120 129 109 56 96 109 109 115 123 118 115 109 110 116 121 124 126 128 131 126 123 122 120 113 106 100
197 213 195 188 224 173 186 196 217 250 238 220 223 194 227 268 266 235 200 184 208 150 102 127 124 118 123 76 65 60 88 121 121 123 123 120 115 116 112 115 119 123 123 121 122 128 130 125 126 125 120 116 110 99
173 139 93 137 170 211 188 200 247 259 224 234 230 203 208 225 263 141 137 163 306 206 150 113 97 99 100 100 103 99 90 101 100 96 100 103 109 113 117 118 119 121 121 119 120 122 119 120 117 113 107 104 94 78